Location: Allisons_Woods
(35.8920°N, 81.8170°W)
Time: 21:05:15
(UTC-04:00)

Daily predictions for brighter satellites

Satellite Brightness Start Highest point End
(mag) Time Altitude Azimuth Time Altitude Azimuth Time Altitude Azimuth
Cosmos 2233 Rocket 4.4 20:58:05 10° NNW 21:04:16 68° W 21:10:22 10° S
Cosmos 2285 Rocket 4.1 21:08:02 10° NNW 21:14:24 85° ENE 21:20:46 10° SSE
Cosmos 2278 Rocket 4.0 21:12:05 10° NW 21:16:56 29° WSW 21:21:45 10° SSW
YAOGAN 11 4.1 21:13:20 10° SSE 21:17:39 71° ENE 21:21:57 10° N
Cosmos 1606 Rocket 4.4 21:13:55 10° NNW 21:18:14 54° W 21:22:29 10° S
Cosmos 1464 Rocket 4.0 21:12:45 10° N 21:18:54 71° E 21:25:04 10° SSE
Okean 2 3.8 21:19:27 10° SSW 21:23:36 68° W 21:27:47 10° N
H-2A R/B 2.5 21:19:35 10° SE 21:23:38 44° ENE 21:27:47 10° N
deb Chang Zheng 4 3.7 21:19:36 10° NNE 21:23:55 57° E 21:28:12 10° S
Cosmos 2369 Rocket 3.8 21:23:58 10° N 21:28:09 21° ENE 21:32:08 11° ESE
Cosmos 1626 Rocket 3.6 21:26:43 10° S 21:31:06 66° E 21:35:29 10° NNE
SJ-11-01 4.4 21:26:56 10° SSE 21:31:31 62° ENE 21:36:08 10° N
Cosmos 1666 2.7 21:28:54 10° N 21:32:49 86° E 21:36:42 10° S
Cosmos 2228 3.0 21:29:34 10° N 21:33:59 89° ENE 21:38:24 10° S
Lacrosse 4 Rocket 2.5 21:32:41 11° SSE 21:35:41 22° ESE 21:38:51 10° NE
SL-16 R/B 4.3 21:30:46 10° WSW 21:35:42 31° WNW 21:40:41 10° N
CZ-2C R/B 0.4 21:34:37 13° S 21:36:34 77° WSW 21:38:51 10° NNW
Timation 1 Rocket 4.4 21:30:55 10° NNW 21:36:58 84° ENE 21:42:36 12° SSE
Cosmos 2034 Rocket 4.0 21:33:10 10° N 21:39:33 78° E 21:45:50 10° S
SeaSat 1 3.7 21:38:41 14° ESE 21:42:05 27° ENE 21:46:13 10° N
GRACE-1 3.9 21:47:01 10° N 21:49:51 61° E 21:51:25 23° SSE
GRACE-2 3.9 21:47:27 10° N 21:50:18 61° E 21:51:51 23° SSE
Cosmos 1238 4.3 21:48:38 18° SSE 21:50:43 50° E 21:53:39 10° NNE
Nimbus 7 Rocket 4.3 21:46:07 10° NNE 21:52:05 77° ESE 21:57:57 10° S
Cosmos 1190 Rocket 4.4 21:47:57 10° S 21:52:54 41° ESE 21:57:52 10° NNE
YAOGAN 6 4.1 21:54:35 19° E 21:55:43 22° ENE 21:58:39 10° NNE
CZ-4B R/B 4.0 21:52:25 10° NNE 21:57:15 40° E 22:00:41 18° SSE
H-2A R/B 4.2 21:56:32 10° ENE 21:57:18 10° ENE 21:58:05 10° NE
Atlas Centaur 2 3.0 21:52:46 10° WSW 21:59:45 58° S 22:06:34 15° ESE
Cosmos 1515 3.7 21:58:34 18° S 22:01:19 63° E 22:05:09 10° NNE
Cosmos 1461 3.8 21:58:16 10° NW 22:02:16 42° WSW 22:05:02 17° S
ATLAS 3B R/B 2.9 21:57:03 10° SSW 22:04:39 66° ESE 22:12:10 10° NE
BREEZE-M DEB (TANK) 4.2 22:00:44 10° WSW 22:05:23 35° NW 22:07:35 10° NNE
SPOT 1/Viking Rocket 4.3 22:03:18 23° ESE 22:05:46 35° ENE 22:10:25 10° N
ISS -0.7 22:03:16 10° W 22:05:59 24° NNW 22:08:42 10° NNE
Cosmos 1066 Rocket 4.4 22:02:16 16° SSE 22:06:36 53° E 22:12:14 10° NNE
ALOS 4.3 22:03:06 10° SSW 22:06:52 24° W 22:10:39 10° NW
Abrixas rocket 4.3 22:05:12 10° W 22:07:44 19° SW 22:09:03 16° SSW
GEOS 3 Rocket 4.1 22:06:57 18° SSE 22:10:45 55° WSW 22:15:53 10° NW
MetOp-A 4.2 22:13:38 26° SSE 22:16:38 66° ENE 22:21:57 10° N
Cosmos 1939 Rocket 3.5 22:14:42 18° S 22:17:38 54° W 22:21:42 10° NNW
CZ-4 R/B 4.3 22:14:40 10° NNE 22:19:28 44° E 22:21:17 31° SSE
ERS-1 Rocket 4.3 22:17:41 10° SSW 22:22:14 35° W 22:26:49 10° NNW
Milstar 3 Cent rocket 4.0 22:17:45 10° WSW 22:22:20 17° SW 22:24:27 14° S
USA 234 4.1 22:19:11 17° E 22:23:48 41° NE 22:29:51 10° NNW
Cosmos 1758 Rocket 3.9 22:23:40 39° SE 22:24:39 46° E 22:28:50 10° NNE
SPOT 5 2.7 22:23:00 28° S 22:25:18 74° WSW 22:29:38 10° NNW
Cosmos 1943 Rocket 3.6 22:21:07 10° N 22:25:31 23° ENE 22:27:31 19° E
BREEZE M DEB (TANK) 2.9 22:24:01 10° NW 22:25:49 24° NNE 22:25:59 24° NNE
Cosmos 1943 3.3 22:20:33 10° SSW 22:26:12 77° WNW 22:31:55 10° NNE
CZ-4 SHROUD 4.1 22:28:44 33° SW 22:29:40 44° W 22:32:42 10° NNW
Terra 3.4 22:31:28 20° E 22:32:13 20° ENE 22:35:41 10° NNE
Envisat 3.6 22:31:25 20° S 22:34:44 52° W 22:39:42 10° NNW
Cosmos 1346 Rocket 2.6 22:34:25 48° S 22:35:26 85° ESE 22:39:23 10° N
COSMOS 2455 4.4 22:32:22 10° WSW 22:37:50 36° NW 22:43:22 10° N
Cosmos 407 Rocket 3.4 22:34:32 17° SSW 22:38:40 90° WNW 22:43:56 10° NNE
Cosmos 1825 Rocket 4.0 22:38:25 22° SSW 22:41:10 61° W 22:45:33 10° N
SL-27 R/B 4.4 22:46:07 19° NE 22:46:07 19° NE 22:47:19 10° NE
Cosmos 1842 4.0 22:44:54 38° ENE 22:44:54 38° ENE 22:47:58 10° NNE
USA 238 DEB 3.8 22:43:03 25° S 22:47:07 53° ESE 22:53:57 10° NE
USA 238 3.8 22:43:19 26° S 22:47:13 52° ESE 22:54:02 10° NE
Meteor 1-21 4.2 22:47:54 37° S 22:50:16 76° E 22:56:05 10° NNE
ARGOS 3.1 22:55:38 48° SSE 22:57:14 88° ENE 23:02:42 10° NNW
Cosmos 1954 Rocket 3.9 22:57:35 47° S 22:59:09 79° ESE 23:04:28 10° NNE
IGS 5A 4.5 23:05:31 34° NE 23:05:31 34° NE 23:08:49 10° N
Cosmos 1766 3.4 23:07:06 10° N 23:10:50 72° NW 23:10:50 72° NW
Cosmos 1758 4.2 23:07:47 10° N 23:10:56 40° NE 23:10:56 40° NE
Nadezhda 4 Rocket 4.1 23:11:18 49° ESE 23:12:13 54° E 23:18:21 10° NNE
Cosmos 2369 Rocket 2.7 23:06:59 10° NNW 23:12:27 51° WSW 23:13:56 40° SSW
Lacrosse 4 Rocket 3.5 23:10:53 10° WSW 23:14:15 25° WNW 23:17:40 10° N
Cosmos 2084 4.4 23:12:00 10° NNW 23:15:41 37° NE 23:15:41 37° NE
SeaSat 1 3.5 23:18:29 32° SW 23:19:27 34° WSW 23:23:57 10° NW
Cosmos 1741 Rocket 4.2 23:21:13 55° E 23:21:13 55° E 23:25:57 10° NNE
NOAA 11 4.5 23:20:27 48° SSW 23:21:37 60° W 23:26:58 10° NNW
SL-08 RB Rocket 4.2 23:25:26 50° WSW 23:25:39 51° W 23:30:04 10° NNW
Geosat 4.3 23:24:45 10° NNE 23:29:44 64° WNW 23:31:13 43° WSW
Spot 2 4.3 23:25:13 10° NNE 23:30:08 89° WNW 23:30:11 88° SW
H-2A R/B 1.9 23:36:00 81° W 23:36:00 81° W 23:41:00 10° NNW
Cosmos 1850 Rocket 3.9 23:37:40 83° NE 23:37:40 83° NE 23:42:42 10° NNE
Cosmos-2242 3.6 23:34:26 10° NNW 23:38:15 56° WNW 23:38:15 56° WNW
Cosmos 1805 4.4 23:36:50 10° N 23:39:29 41° N 23:39:29 41° N
Cosmos 1570 Rocket 4.1 23:36:57 10° NNW 23:42:07 71° NE 23:42:07 71° NE
CZ-4C R/B 3.4 23:45:27 28° ENE 23:45:27 28° ENE 23:48:30 10° NE
COSMOS 2406 3.5 23:45:46 51° WSW 23:46:59 65° WNW 23:52:42 10° NNE
Cosmos 1607 3.9 23:45:43 53° SW 23:47:17 79° WNW 23:53:32 10° NNE
Cosmos 1140 Rocket 4.0 23:47:55 50° WSW 23:48:40 55° WNW 23:53:50 10° N
Atlas Centaur 2 3.1 23:41:43 10° W 23:49:12 52° SSW 23:49:12 52° SSW
